Location: ????
(30.1475°N, 31.1342°E)
Time: 04:30:18
(UTC+00:00)

Envisat - Pass Details

Date: 27 September 2022
Orbit: 763 x 765 km, 98.2° (Epoch: 01 December)

Event Time Altitude Azimuth Distance (km) Brightness Sun altitude
Rises 02:45:38 0° 1° (N) 3,234 6.3 -14.0°
Reaches altitude 10° 02:48:05 10° 353° (N) 2,305 5.5 -13.4°
Maximum altitude 02:52:43 37° 287° (WNW) 1,179 3.5 -12.4°
Drops below altitude 10° 02:57:20 10° 221° (SW) 2,293 5.0 -11.4°
Sets 02:59:46 0° 213° (SSW) 3,216 5.9 -10.9°
